Weather History for Marfa, TX

Change the Weather History Date:

Saturday, November 10, 2012

  Actual Average Record
Temperature  
Mean Temperature 57 °F -  
Max Temperature 75 °F 63 °F 77 °F (2007)
Min Temperature 39 °F 36 °F 23 °F (2011)
Degree Days  
Heating Degree Days 8    
Growing Degree Days 7 (Base 50)    
Moisture  
Dew Point 39 °F    
Average Humidity 53    
Maximum Humidity 93    
Minimum Humidity 25    
Precipitation  
Precipitation 0.00 in - - ()
Sea Level Pressure  
Sea Level Pressure 29.95 in    
Wind  
Wind Speed 5 mph (South)    
Max Wind Speed 28 mph    
Max Gust Speed 36 mph    
Visibility 10 miles    
Events      
Averages and records for this station are not official NWS values.
T = Trace of Precipitation, MM = Missing Value Source: NWS Daily Summary

Daily Weather History Graph

Daily Weather History Graph

Search for Another Location

Airport:

Trip Planner

Search our weather history database for the weather conditions in past years. The results will help you decide how hot, cold, wet, or windy it might be!

Date:

Astronomy

Nov. 10, 2012 Rise Set
Actual Time 7:18 AM CST 6:01 PM CST
Civil Twilight 6:52 AM CST 6:26 PM CST
Nautical Twilight 6:24 AM CST 6:55 PM CST
Astronomical Twilight 5:55 AM CST 7:24 PM CST
Moon 3:39 AM CST (11/10) 3:38 PM CST (11/10)
Length of Visible Light 11h 34m
Length of Day
10h 43m
Waning Crescent, 14% of the Moon is Illuminated
Nov 10
Waning Crescent
Nov 13
New
Nov 20
First Quarter
Nov 28
Full
Dec 6
Last Quarter

Hourly Weather History & Observations

Time (CST) Temp. Dew Point Humidity Pressure Visibility Wind Dir Wind Speed Gust Speed Precip Events Conditions
12:15 AM 53.6 °F 44.6 °F 72% 30.00 in 10.0 mi Calm Calm - N/A   Partly Cloudy
12:35 AM 53.6 °F 46.4 °F 77% 30.00 in 10.0 mi Calm Calm - N/A   Clear
12:55 AM 51.8 °F 46.4 °F 82% 30.01 in 10.0 mi Calm Calm - N/A   Clear
1:15 AM 50.0 °F 44.6 °F 82% 30.01 in 10.0 mi Calm Calm - N/A   Clear
1:35 AM 46.4 °F 41.0 °F 81% 30.01 in 10.0 mi Calm Calm - N/A   Clear
1:55 AM 46.4 °F 41.0 °F 81% 30.01 in 10.0 mi Calm Calm - N/A   Scattered Clouds
2:15 AM 46.4 °F 42.8 °F 87% 30.01 in 10.0 mi Calm Calm - N/A   Partly Cloudy
2:35 AM 46.4 °F 42.8 °F 87% 30.00 in 10.0 mi Calm Calm - N/A   Clear
2:55 AM 44.6 °F 41.0 °F 87% 29.99 in 10.0 mi Calm Calm - N/A   Clear
3:15 AM 44.6 °F 39.2 °F 81% 29.99 in 10.0 mi Calm Calm - N/A   Clear
3:35 AM 44.6 °F 42.8 °F 93% 29.99 in 10.0 mi Calm Calm - N/A   Clear
3:55 AM 42.8 °F 39.2 °F 87% 29.99 in 10.0 mi Calm Calm - N/A   Clear
4:15 AM 41.0 °F 37.4 °F 87% 29.99 in 10.0 mi Calm Calm - N/A   Clear
4:35 AM 41.0 °F 37.4 °F 87% 29.99 in 10.0 mi Calm Calm - N/A   Clear
4:55 AM 39.2 °F 35.6 °F 87% 29.99 in 10.0 mi Calm Calm - N/A   Clear
5:15 AM 42.8 °F 39.2 °F 87% 29.99 in 10.0 mi Calm Calm - N/A   Clear
5:35 AM 42.8 °F 39.2 °F 87% 29.99 in 10.0 mi Calm Calm - N/A   Clear
6:15 AM 39.2 °F 35.6 °F 87% 30.00 in 10.0 mi Calm Calm - N/A   Clear
6:35 AM 39.2 °F 35.6 °F 87% 30.00 in 10.0 mi Calm Calm - N/A   Clear
6:55 AM 39.2 °F 35.6 °F 87% 30.00 in 10.0 mi Calm Calm - N/A   Clear
7:15 AM 39.2 °F 35.6 °F 87% 30.00 in 10.0 mi Calm Calm - N/A   Clear
7:35 AM 41.0 °F 37.4 °F 87% 30.00 in 10.0 mi Calm Calm - N/A   Clear
7:55 AM 42.8 °F 37.4 °F 81% 30.01 in 10.0 mi Calm Calm - N/A   Clear
8:15 AM 48.2 °F 42.8 °F 82% 30.01 in 10.0 mi Calm Calm - N/A   Clear
8:35 AM 51.8 °F 44.6 °F 76% 30.02 in 10.0 mi Calm Calm - N/A   Clear
8:55 AM 53.6 °F 44.6 °F 72% 30.02 in 10.0 mi Calm Calm - N/A   Clear
9:15 AM 57.2 °F 44.6 °F 63% 30.02 in 10.0 mi Calm Calm - N/A   Clear
9:35 AM 62.6 °F 44.6 °F 52% 30.03 in 10.0 mi South 11.5 mph - N/A   Clear
9:55 AM 66.2 °F 44.6 °F 46% 30.02 in 10.0 mi South 13.8 mph 21.9 mph N/A   Clear
10:15 AM 69.8 °F 44.6 °F 40% 30.02 in 10.0 mi South 19.6 mph - N/A   Clear
10:35 AM 69.8 °F 44.6 °F 40% 30.01 in 10.0 mi South 18.4 mph 24.2 mph N/A   Clear
10:55 AM 69.8 °F 44.6 °F 40% 30.01 in 10.0 mi South 17.3 mph 23.0 mph N/A   Clear
11:15 AM 73.4 °F 42.8 °F 33% 30.00 in 10.0 mi South 18.4 mph 25.3 mph N/A   Clear
11:35 AM 73.4 °F 42.8 °F 33% 29.99 in 10.0 mi South 19.6 mph 25.3 mph N/A   Clear
11:55 AM 73.4 °F 42.8 °F 33% 29.98 in 10.0 mi SSW 15.0 mph 24.2 mph N/A   Partly Cloudy
12:15 PM 73.4 °F 39.2 °F 29% 29.97 in 10.0 mi South 19.6 mph 27.6 mph N/A   Partly Cloudy
12:35 PM 75.2 °F 37.4 °F 25% 29.96 in 10.0 mi SW 24.2 mph 35.7 mph N/A   Clear
12:55 PM 75.2 °F 37.4 °F 25% 29.95 in 10.0 mi WSW 27.6 mph 32.2 mph N/A   Partly Cloudy
1:15 PM 75.2 °F 37.4 °F 25% 29.94 in 10.0 mi SSW 24.2 mph 29.9 mph N/A   Partly Cloudy
1:35 PM 75.2 °F 37.4 °F 25% 29.92 in 10.0 mi SW 21.9 mph 33.4 mph N/A   Partly Cloudy
1:55 PM 75.2 °F 37.4 °F 25% 29.92 in 10.0 mi SSW 21.9 mph 31.1 mph N/A   Scattered Clouds
2:15 PM 73.4 °F 37.4 °F 27% 29.91 in 10.0 mi SSW 21.9 mph 33.4 mph N/A   Scattered Clouds
2:35 PM 73.4 °F 37.4 °F 27% 29.90 in 10.0 mi South 24.2 mph 28.8 mph N/A   Partly Cloudy
2:55 PM 73.4 °F 37.4 °F 27% 29.90 in 10.0 mi SSW 18.4 mph 24.2 mph N/A   Partly Cloudy
3:15 PM 73.4 °F 37.4 °F 27% 29.89 in 10.0 mi South 24.2 mph 28.8 mph N/A   Partly Cloudy
3:35 PM 71.6 °F 37.4 °F 29% 29.88 in 10.0 mi South 23.0 mph - N/A   Scattered Clouds
3:55 PM 73.4 °F 37.4 °F 27% 29.88 in 10.0 mi South 19.6 mph 28.8 mph N/A   Overcast
4:15 PM 73.4 °F 37.4 °F 27% 29.87 in 10.0 mi South 24.2 mph 32.2 mph N/A   Overcast
4:35 PM 73.4 °F 39.2 °F 29% 29.86 in 10.0 mi South 25.3 mph 31.1 mph N/A   Overcast
4:55 PM 73.4 °F 39.2 °F 29% 29.86 in 10.0 mi South 21.9 mph 29.9 mph N/A   Scattered Clouds
5:15 PM 73.4 °F 39.2 °F 29% 29.86 in 10.0 mi South 19.6 mph 29.9 mph N/A   Scattered Clouds
5:35 PM 71.6 °F 39.2 °F 31% 29.86 in 10.0 mi South 18.4 mph 25.3 mph N/A   Mostly Cloudy
5:55 PM 71.6 °F 39.2 °F 31% 29.86 in 10.0 mi South 15.0 mph 24.2 mph N/A   Scattered Clouds
6:15 PM 69.8 °F 37.4 °F 31% 29.86 in 10.0 mi SSE 6.9 mph - N/A   Scattered Clouds
6:35 PM 66.2 °F 37.4 °F 35% 29.86 in 10.0 mi South 5.8 mph - N/A   Partly Cloudy
6:55 PM 64.4 °F 37.4 °F 37% 29.86 in 10.0 mi Calm Calm - N/A   Scattered Clouds
7:15 PM 64.4 °F 37.4 °F 37% 29.87 in 10.0 mi Calm Calm - N/A   Mostly Cloudy
7:35 PM 62.6 °F 37.4 °F 39% 29.88 in 10.0 mi Calm Calm - N/A   Mostly Cloudy
7:55 PM 62.6 °F 37.4 °F 39% 29.89 in 10.0 mi Calm Calm - N/A   Overcast
8:15 PM 62.6 °F 39.2 °F 42% 29.89 in 10.0 mi Calm Calm - N/A   Mostly Cloudy
8:35 PM 62.6 °F 37.4 °F 39% 29.89 in 10.0 mi Calm Calm - N/A   Partly Cloudy
8:55 PM 64.4 °F 35.6 °F 34% 29.89 in 10.0 mi SSW 10.4 mph 17.3 mph N/A   Clear
9:35 PM 60.8 °F 33.8 °F 36% 29.90 in 10.0 mi SW 6.9 mph - N/A   Clear
10:15 PM 57.2 °F 32.0 °F 38% 29.90 in 10.0 mi Calm Calm - N/A   Clear
10:35 PM 57.2 °F 32.0 °F 38% 29.91 in 10.0 mi Calm Calm - N/A   Clear
10:55 PM 53.6 °F 32.0 °F 44% 29.91 in 10.0 mi Calm Calm - N/A   Clear
11:15 PM 48.2 °F 30.2 °F 50% 29.91 in 10.0 mi Calm Calm - N/A   Clear
11:35 PM 51.8 °F 32.0 °F 47% 29.91 in 10.0 mi Calm Calm - N/A   Clear
11:55 PM 51.8 °F 30.2 °F 44% 29.91 in 10.0 mi Calm Calm - N/A   Clear